SCOUT X-4 DEB, 805

Orbit data source: Space-Track

SCOUT X-4 DEB, 805 is space debris in LEO originally from a launch on Thu, 04 Jun 1964 UTC launched from the Air Force Western Test Range (AFWTR). Debris objects in space refer to the collection of defunct objects orbiting the Earth. Examples of debris include non-operational satellites, rocket bodies, and fragments generated from explosions, collisions, or faulty payload assembly.

Loading next visibility...
Identifier
805, 1964-026B
Orbit
LEO
Country
Flag of USUS
Related business
Manufacturer
Unknown
Mission
Spacecraft
Bus & Motor
Unknown
Mass
Unknown
Launch date (UTC)
1964-06-04 (62 years ago)
Launch vehicle
Unknown
Launch site
Air Force Western Test Range (AFWTR)
Object type
Payload
Rocket body
Debris
Shape & HBR
Unknown shape, 0.1 m
Radar Cross Section
Small (<0.1 m²)

Expand to show TLE details & history
Last TLE update: 2 days ago

TLE from 2 days ago
0 SCOUT X-4 DEB
1 00805U 64026B   26134.52400516  .00000950  00000-0  32231-3 0  9998
2 00805  89.8525 329.4472 0027184 302.5218  57.3355 14.35940571185209
Epoch: 2026-05-14T12:34Z
TLE epoch observation values (Epoch: 2026-05-14T12:34:34.045Z)
Latitude
-0.00003°
Longitude
-91.4631°
Altitude
764.565 km
Speed
7.477 km/s
True Right ascension
21h 57m 47s
True Declination
0° 00' 00"
Sunlit
Object was in daylight at epoch
Visualization orbit readout
Latitude
Unknown
Longitude
Unknown
Altitude
Unknown
Speed
Unknown
Apparent Right ascension
Unknown
Apparent Declination
Unknown
Sunlit
N/A
Visualization observer readout
Local Sidereal Time
16:14:50
Azimuth
Unknown
Elevation
Unknown
Doppler factor
Unknown
Orbital elements
Apogee altitude
788.296 km
Perigee altitude
749.44 km
Semi-major axis
7,147.005 km
Eccentricity
0.00272
Inclination
89.8525°
RAAN
329.4472°
Arg. of periapsis
302.5218°
True anomaly
57.59822°
Mean anomaly
57.3355°
Eccentric anomaly
57.46681°
Mean motion
3.59217 °/min
Orbital period
100.22 mins
BSTAR
0.00032231
Loading maneuver chart data...
Computing Atmospheric mass density...
Loading historical data...
Loading historical data...
Loading historical data...
Loading historical data...
Loading historical data...
Loading historical data...
Loading historical data...

Documentation

Showing up to 5 results
|